Location: Millers Ferry
(32.0990°N, 87.3680°W)
Time: 05:23:21
(UTC-06:00)

CSL-04 Rocket - Visible Passes

Search period start: 21 December 2014 00:00
Search period end: 31 December 2014 00:00
Orbit: 806 x 861 km, 98.9° (Epoch: 20 December)

Date Brightness Start Highest point End Pass type
(mag) Time Alt. Az. Time Alt. Az. Time Alt. Az.
21 Dec 5.8 04:59:13 10° N 04:59:23 11° N 04:59:23 11° N visible
22 Dec 5.9 04:42:10 10° N 04:42:15 10° N 04:42:15 10° N visible
23 Dec 5.9 04:35:42 11° SSW 04:35:42 11° SSW 04:35:49 10° SSW visible
24 Dec 6.0 04:18:49 11° S 04:18:49 11° S 04:19:01 10° S visible
25 Dec 6.1 04:01:56 10° S 04:01:56 10° S 04:02:00 10° S visible
